Regional Weather Roundup
Issued by NWS

Home | Current Version | Previous Version | Graphics & Text | Print | Product List | Glossary On
Versions: 1 2 3 4 5 6 7 8 9 10 11 12 13 14 15 16 17 18 19 20 21 22 23 24 25 26 27 28 29 30 31 32 33 34 35 36 37 38 39 40 41 42 43 44 45 46 47 48 49 50
000
ASUS43 KTOP 091759
RWRKS

WEATHER ROUNDUP FOR KANSAS
NATIONAL WEATHER SERVICE GOODLAND KS
1200 PM CST FRI DEC 09 2016

NOTE:  "FAIR" INDICATES FEW OR NO CLOUDS BELOW 12,000 FEET WITH NO
SIGNIFICANT WEATHER AND/OR OBSTRUCTIONS TO VISIBILITY.

KSZ001>006-013>018-027>032-041>047-091900-
NORTHWEST KANSAS

CITY           SKY/WX    TMP DP  RH WIND       PRES   REMARKS
GOODLAND       SUNNY     27  17  66 S22G28    30.19F WCI  13
6HR MIN TEMP:   7; 6HR MAX TEMP:  27;

HAYS           CLOUDY    25  11  55 S18       30.41F WCI  11
HILL CITY      CLOUDY    26  10  50 S16G23    30.38F WCI  14
6HR MIN TEMP:  17; 6HR MAX TEMP:  26;

RUSSELL        CLOUDY    23  11  60 S17       30.44F WCI   9
6HR MIN TEMP:  16; 6HR MAX TEMP:  23;

$$

KSZ061>065-074>080-084>089-091900-
SOUTHWEST KANSAS

CITY           SKY/WX    TMP DP  RH WIND       PRES   REMARKS
DODGE CITY     CLOUDY    27  12  53 S18       30.37F WCI  14
6HR MIN TEMP:  20; 6HR MAX TEMP:  27;

ELKHART          N/A     36  18  48 S14         N/A  WCI  27
GARDEN CITY    CLOUDY    33  16  49 S18G29    30.30F WCI  22
6HR MIN TEMP:  21; 6HR MAX TEMP:  33;

GREAT BEND     CLOUDY    25  10  53 S20       30.45F WCI  11
LIBERAL        CLOUDY    34  18  51 E18       30.31F WCI  23
$$

KSZ066>073-081>083-090>101-091900-
SOUTHEAST KANSAS

CITY           SKY/WX    TMP DP  RH WIND       PRES   REMARKS
CHANUTE        SUNNY     28  12  51 SE8       30.61F
6HR MIN TEMP:  12; 6HR MAX TEMP:  29;

COFFEYVILLE    PTSUNNY   29  13  51 VRB7      30.64F
6HR MIN TEMP:  13; 6HR MAX TEMP:  30;

HUTCHINSON     CLOUDY    25  12  58 S17       30.51F WCI  12
6HR MIN TEMP:  17; 6HR MAX TEMP:  25;

MEDICINE LODGE   N/A     24  11  57 SE13G18   30.50F WCI  12
NEWTON         CLOUDY    24  14  65 S16       30.53F WCI  11
PARSONS        MOSUNNY   29  12  49 SE5       30.63F
6HR MIN TEMP:  10; 6HR MAX TEMP:  29;

WICHITA INTL   CLOUDY    26  12  55 S16       30.54F WCI  14
6HR MIN TEMP:  14; 6HR MAX TEMP:  26;

WICHITA JABRA  CLOUDY    25  12  58 S14       30.54F WCI  13
6HR MIN TEMP:  13; 6HR MAX TEMP:  25;

WICHITA MCCONL CLOUDY    26  11  55 S16       30.54F WCI  13
WINFIELD       CLOUDY    27  12  53 SE10      30.58F WCI  17
6HR MIN TEMP:  13; 6HR MAX TEMP:  27;

$$

KSZ007>012-019>026-033>040-048>060-102>105-091900-
NORTHEAST KANSAS

CITY           SKY/WX    TMP DP  RH WIND       PRES   REMARKS
CONCORDIA      CLOUDY    22  12  65 SE13      30.52F WCI  10
6HR MIN TEMP:  14; 6HR MAX TEMP:  22;

EMPORIA        CLOUDY    26  13  57 SE10      30.57F WCI  16
6HR MIN TEMP:  12; 6HR MAX TEMP:  26;

LAWRENCE       PTSUNNY   23  15  71 SE7       30.63F
6HR MIN TEMP:   7; 6HR MAX TEMP:  23;

MANHATTAN      CLOUDY    26  12  55 S9        30.58F
6HR MIN TEMP:  13; 6HR MAX TEMP:  26;

OLATHE IND     FLURRIES  24  13  62 VRB6      30.62F
6HR MIN TEMP:  12; 6HR MAX TEMP:  24; 6HR PCP: TRACE;

OLATHE EXE     CLOUDY    22  11  62 VRB3      30.62F
6HR MIN TEMP:   9; 6HR MAX TEMP:  23;

SALINA         CLOUDY    26  13  57 S15       30.54F WCI  14
6HR MIN TEMP:  12; 6HR MAX TEMP:  26;

TOPEKA BILLARD CLOUDY    25  13  60 SE9       30.61F
6HR MIN TEMP:  12; 6HR MAX TEMP:  25;

TOPEKA FORBES  CLOUDY    26  13  57 SE10      30.60F WCI  16
6HR MIN TEMP:  11; 6HR MAX TEMP:  26;

$$



USA.gov is the U.S. government's official web portal to all federal, state and local government web resources and services.